Station 45003 (LLNR 11510) - NORTH HURON - 32NM Northeast of Alpena, MI Image indicating link to RSS feed of recent meteorological observations for station 45003


Conditions at 45003 as of
(12:40 am EDT)
0440 GMT on 07/22/2024:
     

Click on the graph icon in the table below to see a time series plot of the last five days of that observation.

5-day plot - Wind Direction Wind Direction (WDIR):WSW ( 250 deg true )
5-day plot - Wind Speed Wind Speed (WSPD): 5.8 kts
5-day plot - Wind Gust Wind Gust (GST): 5.8 kts
5-day plot - Atmospheric Pressure Atmospheric Pressure (PRES):30.12 in
5-day plot - Air Temperature Air Temperature (ATMP): 66.7 °F
5-day plot - Water Temperature Water Temperature (WTMP): 67.3 °F
5-day plot - Dew Point Dew Point (DEWP): 60.1 °F
5-day plot - Wind Speed at 10 Meters Wind Speed at 10 meters (WSPD10M): 5.8 kts
5-day plot - Wind Speed at 20 Meters Wind Speed at 20 meters (WSPD20M): 5.8 kts
5-day plot -  Wind Speed, Wind Gust and Atmospheric Pressure Combined plot of Wind Speed, Gust, and Air Pressure
Supplemental Measurements
Highest 1-minute Wind Speed
Time (EDT)5-day plot - 1-Minute Wind Speed WSPD 5-day plot - 1-Minute Wind Direction WDIR
12:36 am 5.8 kts-
Previous observations
TIME
(EDT)
5-day plot - Wind Direction
WDIR
 
5-day plot - Wind Speed
WSPD
kts
5-day plot - Wind Gust
GST
kts
5-day plot - Wave Height
WVHT
ft
5-day plot - Dominant Wave Period
DPD
sec
5-day plot - Average Wave Period
APD
sec
5-day plot - Mean Wave Direction
MWD
 
5-day plot - Atmospheric Pressure
PRES
in
5-day plot - Pressure Tendency
PTDY
in
5-day plot - Air Temperature
ATMP
°F
5-day plot - Water Temperature
WTMP
°F
5-day plot - Dew Point
DEWP
°F
5-day plot - Salinity
SAL
psu
5-day plot - Visibility
VIS
nmi
5-day plot - Tide (above MLLW)
TIDE
ft
2024-07-22 12:30 amWSW 5.8 5.8----30.12- 66.6 67.5 60.8---
2024-07-22 12:20 amWSW 5.8 7.8 0.3-2.8-30.12- 66.6 67.5 61.0---
2024-07-22 12:10 amWSW 5.8 7.8 0.3-2.8-30.12- 66.4 67.5 60.8---
2024-07-22 12:00 am SW 5.8 7.8----30.12+0.02 66.2 67.5 61.5---
2024-07-21 11:50 pmWSW 5.8 5.8 0.3-2.8-30.12- 66.2 67.5 61.3---
2024-07-21 11:40 pmWSW 5.8 7.8 0.3-2.8-30.11- 66.2 67.5 61.9---
2024-07-21 11:30 pmWSW 5.8 5.8----30.11- 66.6 67.5 61.2---
2024-07-21 11:20 pmWSW 3.9 5.8 0.3-2.8-30.11- 66.7 67.6 60.3---
2024-07-21 11:10 pmWSW 3.9 5.8 0.3-2.8-30.11- 66.6 67.6 60.6---
2024-07-21 11:00 pmWSW 3.9 3.9----30.11+0.00 66.6 67.6 61.0---
2024-07-21 10:50 pm W 3.9 3.9 0.3-2.7-30.11- 66.6 67.6 61.2---
2024-07-21 10:40 pm W 1.9 3.9----30.11- 66.6 67.6 61.0---
2024-07-21 10:30 pmWNW 3.9 3.9----30.11- 66.7 67.6 61.2---
2024-07-21 10:20 pm W 3.9 3.9 0.3-2.7-30.11- 66.9 67.6 60.6---
2024-07-21 10:10 pmWNW 1.9 3.9 0.3-2.7-30.11- 66.9 67.6 59.9---
2024-07-21 10:00 pm NW 3.9 3.9----30.11-0.01 66.9 67.6 59.5---
2024-07-21 09:50 pm NW 3.9 3.9 0.3-2.8-30.10- 66.7 67.8 60.1---
2024-07-21 09:40 pmNNW 3.9 5.8----30.10- 66.7 67.8 60.4---
2024-07-21 09:30 pm NW 3.9 3.9----30.10- 66.7 67.8 60.1---
2024-07-21 09:20 pm NW 3.9 3.9 0.3-2.9-30.10- 66.7 67.8 59.7---
2024-07-21 09:10 pmWNW 3.9 3.9 0.3-2.9-30.10- 66.7 67.8 59.5---
2024-07-21 09:00 pmWNW 3.9 3.9----30.10-0.03 66.7 67.8 59.2---
2024-07-21 08:50 pmWNW 3.9 3.9 0.3-2.9-30.10- 66.9 67.8 59.4---
2024-07-21 08:40 pm W 1.9 3.9 0.3-2.9-30.09- 67.1 68.0 59.0---
2024-07-21 08:30 pm W 3.9 3.9----30.10- 67.1 68.0 59.2---
2024-07-21 08:20 pmWNW 3.9 3.9 0.3-3.0-30.10- 67.1 68.0 59.0---
2024-07-21 08:10 pmWNW 3.9 3.9 0.3-3.0-30.10- 67.3 68.0 58.3---
2024-07-21 08:00 pm W 3.9 3.9----30.10-0.03 67.3 68.0 58.8---
2024-07-21 07:50 pmWSW 3.9 5.8 0.3-3.2-30.11- 67.6 68.2 58.5---
2024-07-21 07:40 pm W 3.9 3.9----30.11- 67.6 68.2 58.1---
2024-07-21 07:20 pm W 3.9 5.8 0.7-3.3-30.11- 67.3 68.2 57.4---
2024-07-21 07:10 pmWSW 5.8 5.8 0.7-3.3-30.11- 67.3 68.2 58.1---
2024-07-21 07:00 pmWSW 5.8 5.8----30.11-0.03 67.5 68.4 58.5---
2024-07-21 06:50 pm W 5.8 5.8 0.7-3.3-30.11- 67.5 68.4 57.9---
2024-07-21 06:40 pm W 3.9 5.8----30.11- 67.5 68.4 57.4---
2024-07-21 06:30 pmWNW 3.9 5.8----30.11- 67.3 68.4 57.2---
2024-07-21 06:20 pmWNW 5.8 5.8 0.7-3.2-30.11- 67.3 68.4 57.2---
2024-07-21 06:10 pmWNW 3.9 5.8 0.7-3.2-30.12- 67.3 68.4 57.4---
2024-07-21 06:00 pm NW 5.8 5.8----30.12-0.02 67.1 68.5 57.2---
2024-07-21 05:50 pm NW 5.8 7.8 0.7-3.4-30.12- 66.9 68.4 57.0---
2024-07-21 05:40 pm NW 5.8 7.8 0.7-3.4-30.12- 66.9 68.5 56.8---
2024-07-21 05:30 pmWNW 5.8 5.8----30.12- 66.9 68.5 56.3---
2024-07-21 05:20 pmWNW 5.8 5.8 0.7-3.2-30.13- 66.9 68.4 56.1---
2024-07-21 05:10 pmWNW 5.8 5.8 0.7-3.2-30.13- 66.7 68.5 55.8---
2024-07-21 05:00 pmWNW 5.8 5.8----30.13-0.02 66.7 68.5 55.4---
2024-07-21 04:50 pmWNW 3.9 5.8 1.0 33.3 E30.14- 66.7 68.4 55.6---
2024-07-21 04:40 pm W 5.8 5.8 1.0-3.3 E30.14- 66.7 68.4 55.0---
2024-07-21 04:30 pm W 5.8 5.8----30.14- 66.7 68.2 55.0---
2024-07-21 04:20 pm W 5.8 5.8 1.0 43.3 E30.14- 66.7 68.4 54.9---
2024-07-21 04:10 pm W 5.8 5.8 1.0-3.3 E30.14- 66.7 67.6 54.7---
2024-07-21 04:00 pmWNW 3.9 5.8----30.14-0.01 66.6 68.2 54.3---
2024-07-21 03:50 pmWNW 3.9 5.8 1.0 43.3 E30.14- 66.4 67.5 54.7---
2024-07-21 03:40 pmWNW 3.9 5.8----30.14- 66.4 67.6 54.3---
2024-07-21 03:30 pmWNW 3.9 3.9----30.14- 66.4 67.6 54.5---
2024-07-21 03:20 pmWNW 3.9 3.9 1.0 43.4 E30.15- 66.2 67.6 54.5---
2024-07-21 03:10 pmWNW 3.9 3.9 1.0-3.4 E30.14- 66.2 67.3 54.9---
2024-07-21 03:00 pm W 3.9 3.9----30.15-0.01 66.0 67.5 54.3---
2024-07-21 02:50 pmWNW 3.9 3.9 1.3 43.3 E30.14- 65.8 67.1 54.3---
2024-07-21 02:40 pm NW 3.9 3.9----30.15- 65.7 67.5 54.3---
2024-07-21 02:30 pm NW 3.9 3.9----30.15- 65.7 66.9 53.8---
2024-07-21 02:20 pmNNW 1.9 3.9 1.3 43.4 E30.15- 65.7 66.9 54.0---
2024-07-21 02:10 pmNNW 1.9 3.9 1.3-3.4 E30.15- 65.3 66.9 52.9---
2024-07-21 02:00 pmNNW 1.9 3.9----30.15+0.00 65.3 66.7 53.2---
2024-07-21 01:50 pm N 1.9 3.9 1.3 43.3 E30.15- 65.1 66.7 53.6---
2024-07-21 01:40 pm N 1.9 3.9----30.15- 65.1 66.7 53.1---
2024-07-21 01:30 pm N 1.9 3.9----30.16- 65.1 66.7 53.1---
2024-07-21 01:20 pm N 3.9 3.9 1.3 43.4 E30.16- 65.1 66.6 53.4---
2024-07-21 01:10 pmNNE 3.9 3.9 1.3-3.4 E30.16- 65.1 66.6 54.1---
2024-07-21 01:00 pmNNE 3.9 3.9----30.16+0.01 65.1 66.6 53.8---
2024-07-21 12:50 pmNNE 3.9 5.8 1.3 43.4 E30.16- 64.9 66.6 53.8---
2024-07-21 12:40 pmNNE 3.9 5.8----30.16- 64.9 66.6 54.0---
2024-07-21 12:30 pmNNE 3.9 5.8----30.15- 64.8 66.4 53.8---
2024-07-21 12:20 pm NE 3.9 5.8 1.6 43.4 E30.15- 64.8 66.4 54.0---
2024-07-21 12:10 pm NE 3.9 5.8 1.6-3.4 E30.15- 64.8 66.4 53.8---
2024-07-21 12:00 pm NE 3.9 5.8----30.16+0.01 64.8 66.2 54.5---
2024-07-21 11:50 am NE 5.8 7.8 1.6 43.3 E30.15- 64.6 66.2 54.3---
2024-07-21 11:40 am NE 5.8 7.8 1.6-3.3 E30.15- 64.6 66.2 54.1---
2024-07-21 11:30 am NE 7.8 9.7----30.15- 64.4 66.2 54.3---
2024-07-21 11:20 am NE 7.8 9.7 2.0 43.4 E30.15- 64.4 66.2 54.5---
2024-07-21 11:10 amENE 7.8 7.8 2.0-3.4 E30.15- 64.4 66.2 54.7---
2024-07-21 11:00 amENE 7.8 9.7----30.15+0.02 64.2 66.0 55.0---
2024-07-21 10:50 amENE 7.8 9.7 2.0 43.4 E30.15- 64.2 66.0 54.5---
2024-07-21 10:40 am NE 7.8 9.7 2.0-3.4 E30.15- 64.2 66.0 54.5---
2024-07-21 10:30 am NE 9.7 11.7----30.15- 64.2 66.0 55.0---
2024-07-21 10:20 am NE 9.7 11.7 2.0 43.4 E30.15- 64.0 66.0 54.7---
2024-07-21 10:10 am NE 9.7 11.7 2.0-3.4 E30.15- 64.2 66.0 55.0---
2024-07-21 10:00 amENE 9.7 11.7----30.15+0.04 64.2 66.0 54.9---
2024-07-21 09:50 amENE 11.7 15.5 2.3 43.3 E30.15- 64.6 66.0 55.0---
2024-07-21 09:40 amENE 13.6 15.5----30.15- 64.6 66.0 54.1---
2024-07-21 09:30 amENE 13.6 15.5----30.14- 64.6 66.0 54.5---
2024-07-21 09:20 amENE 13.6 15.5 2.3 43.3 E30.14- 64.6 66.0 54.7---
2024-07-21 09:10 amENE 13.6 15.5 2.3-3.3 E30.15- 64.6 66.0 54.5---
2024-07-21 09:00 amENE 13.6 15.5----30.14+0.06 64.6 66.0 54.5---
2024-07-21 08:50 amENE 13.6 15.5 2.3 43.1 E30.14- 64.6 66.0 54.7---
2024-07-21 08:40 amENE 13.6 15.5 2.3-3.1 E30.14- 64.6 66.0 54.9---
2024-07-21 08:30 amENE 13.6 15.5----30.14- 64.8 66.0 55.2---
2024-07-21 08:20 amENE 13.6 15.5 2.0 33.2ENE30.14- 64.8 66.0 55.4---
2024-07-21 08:10 amENE 13.6 15.5 2.0-3.2ENE30.13- 64.4 66.0 55.9---
2024-07-21 08:00 amENE 13.6 15.5----30.13+0.06 64.4 66.0 55.9---
2024-07-21 07:50 amENE 13.6 15.5 2.0 33.0ENE30.13- 64.4 66.0 55.9---
2024-07-21 07:40 am NE 13.6 15.5----30.13- 64.4 66.0 56.5---
2024-07-21 07:30 amENE 11.7 15.5----30.12- 64.6 66.0 56.7---
2024-07-21 07:20 amENE 13.6 15.5 2.0 33.0 NE30.12- 64.6 66.0 56.3---
2024-07-21 07:10 amENE 13.6 15.5 2.0-3.0 NE30.12- 64.8 66.0 56.8---
2024-07-21 07:00 amENE 13.6 15.5----30.11+0.06 64.8 66.0 57.2---
2024-07-21 06:50 amENE 13.6 15.5 1.6 33.0ENE30.11- 64.9 66.0 57.4---
2024-07-21 06:40 amENE 13.6 17.5----30.11- 64.9 66.2 57.4---
2024-07-21 06:30 amENE 15.5 17.5----30.10- 65.1 66.2 57.6---
2024-07-21 06:20 amENE 15.5 17.5 1.6 32.8 NE30.10- 65.1 66.2 58.1---
2024-07-21 06:10 am NE 15.5 17.5 1.6-2.8 NE30.09- 65.3 66.2 58.3---
2024-07-21 06:00 amENE 13.6 17.5----30.09+0.03 65.3 66.4 58.8---
2024-07-21 05:50 am NE 13.6 17.5 1.3 32.6 NE30.09- 65.5 66.4 59.4---
2024-07-21 05:40 am NE 13.6 15.5----30.08- 65.7 66.4 59.7---
2024-07-21 05:30 am NE 13.6 17.5----30.08- 65.8 66.4 60.1---
2024-07-21 05:20 am NE 13.6 15.5 1.0 22.6 SW30.08- 66.0 66.6 60.4---
2024-07-21 05:10 am NE 13.6 15.5 1.0-2.6 SW30.07- 66.4 66.6 60.8---
2024-07-21 05:00 am NE 11.7 15.5----30.07+0.01 66.4 66.7 61.5---
2024-07-21 04:50 am NE 11.7 15.5 0.7-3.0-30.07- 66.4 66.7 62.8---
2024-07-21 04:40 am NE 11.7 13.6 0.7-3.0-30.07- 66.6 66.9 63.7---
2024-07-21 04:30 amNNE 9.7 11.7----30.07- 66.7 66.9 64.8---
2024-07-21 04:20 amNNE 9.7 11.7 1.0 43.0 W30.06- 66.7 66.9 65.3---
2024-07-21 04:10 amNNE 9.7 11.7 1.0-3.0 W30.06- 66.9 66.9 65.5---
2024-07-21 04:00 amNNE 7.8 9.7----30.06+0.00 66.9 66.9 65.7---
2024-07-21 03:50 am N 7.8 9.7 1.0 33.1 W30.06- 66.9 66.9 65.7---
2024-07-21 03:40 am N 7.8 9.7----30.06- 67.1 66.9 65.3---
2024-07-21 03:30 am N 7.8 7.8----30.06- 67.1 66.9 65.3---
2024-07-21 03:20 am N 5.8 7.8 1.0 43.1WNW30.06- 67.1 66.9 65.5---
2024-07-21 03:10 am N 5.8 7.8 1.0-3.1WNW30.06- 67.1 67.1 65.8---
2024-07-21 03:00 am N 5.8 5.8----30.06+0.01 67.1 67.1 66.0---
2024-07-21 02:50 am N 5.8 5.8 1.0 43.2 W30.06- 67.1 67.3 66.0---
2024-07-21 02:40 am N 5.8 5.8 1.0-3.2 W30.06- 67.1 67.3 66.0---
2024-07-21 02:30 am N 5.8 5.8----30.06- 67.3 67.3 66.0---
2024-07-21 02:20 am N 5.8 7.8 1.0 43.3 W30.06- 67.3 67.3 66.0---
2024-07-21 02:10 am N 5.8 7.8 1.0-3.3 W30.06- 67.5 67.3 66.0---
2024-07-21 02:00 am N 5.8 7.8----30.06+0.00 67.5 67.1 66.0---
2024-07-21 01:50 am N 5.8 7.8 1.0 43.4 SW30.06- 67.6 67.1 66.2---
2024-07-21 01:40 am N 7.8 7.8----30.06- 67.6 67.1 66.0---
2024-07-21 01:30 am N 7.8 7.8----30.06- 67.6 67.1 66.2---
2024-07-21 01:20 am N 7.8 9.7 1.0 43.4 SW30.06- 67.8 67.3 66.4---
2024-07-21 01:10 am N 7.8 7.8 1.0-3.4 SW30.05- 67.6 67.5 66.6---
2024-07-21 01:00 amNNW 7.8 9.7----30.05+0.00 67.8 67.5 66.9---
2024-07-21 12:50 amNNW 7.8 9.7 1.0 43.3SSW30.06- 67.8 67.5 66.9---

Detailed Wave Summary
for 45003 as of (12:10 am EDT)
0410 GMT on 07/22/2024:

These wave data are displayed in rounded times.

     

Click on the graph icon in the table below to see a time series plot of the last five days of that observation.

5-day plot - Significant Wave Height Significant Wave Height (WVHT): 0.3 ft
5-day plot - Average Wave Period Average Wave Period (APD): 2.8 sec
Previous observations
TIME
(EDT)
5-day plot - Wave Height
WVHT
ft
5-day plot - Swell Height
SwH
ft
5-day plot - Swell Period
SwP
sec
5-day plot - Swell Direction
SwD
 
5-day plot - Wind Wave Height
WWH
ft
5-day plot - Wind Wave Period
WWP
sec
5-day plot - Wind Wave Direction
WWD
 
5-day plot - Wave Steepness
STEEPNESS
 
5-day plot - Average Wave Period
APD
sec
2024-07-21 11:40 pm 0.3------ N/A 2.8
2024-07-21 11:10 pm 0.3------ N/A 2.8
2024-07-21 10:40 pm 0.3------ N/A 2.7
2024-07-21 10:10 pm 0.3------ N/A 2.7
2024-07-21 09:40 pm 0.3------ N/A 2.8
2024-07-21 09:10 pm 0.3------ N/A 2.9
2024-07-21 08:40 pm 0.3------ N/A 2.9
2024-07-21 08:10 pm 0.3------ N/A 3.0
2024-07-21 07:40 pm 0.3------ N/A 3.2
2024-07-21 07:10 pm 0.7------ N/A 3.3
2024-07-21 06:40 pm 0.7------ N/A 3.3
2024-07-21 06:10 pm 0.7------ N/A 3.2
2024-07-21 05:40 pm 0.7------ N/A 3.4
2024-07-21 05:10 pm 0.7------ N/A 3.2
2024-07-21 04:40 pm 1.0 0.3 4.8 E 0.7 3.4 E N/A 3.3
2024-07-21 04:10 pm 1.0 0.3 4.8ESE 0.7 3.8 E N/A 3.3
2024-07-21 03:40 pm 1.0 0.3 4.8 E 1.0 4.0 E N/A 3.3
2024-07-21 03:10 pm 1.0 0.7 4.2 E 1.0 3.6 E N/A 3.4
2024-07-21 02:40 pm 1.3 0.7 4.8 E 1.0 4.0 E N/A 3.3
2024-07-21 02:10 pm 1.3 0.7 4.3 E 1.0 3.8 E N/A 3.4
2024-07-21 01:40 pm 1.3 0.7 4.3ESE 1.3 3.8 E N/A 3.3
2024-07-21 01:10 pm 1.3 0.7 4.5 E 1.3 4.0 E N/A 3.4
2024-07-21 12:40 pm 1.3 1.0 4.3 E 1.3 3.7 E N/A 3.4
2024-07-21 12:10 pm 1.6 1.0 5.6ESE 1.3 4.0 E N/A 3.4
2024-07-21 11:40 am 1.6 1.0 4.3 E 1.3 3.8 E N/A 3.3
2024-07-21 11:10 am 2.0 1.0 4.8ESE 1.6 4.0 E N/A 3.4
2024-07-21 10:40 am 2.0 1.0 4.3 E 1.6 3.7 E N/A 3.4
2024-07-21 10:10 am 2.0 0.3 7.1 SE 2.0 4.0 E N/A 3.4
2024-07-21 09:40 am 2.3 0.3 6.7 E 2.3 4.0 E N/A 3.3
2024-07-21 09:10 am 2.3 0.0 10.8 SW 2.3 4.0 E N/A 3.3
2024-07-21 08:40 am 2.3 0.0 6.2 NE 2.3 3.7 E N/A 3.1
2024-07-21 08:10 am 2.0 0.0 7.1 W 2.0 3.4 ENE N/A 3.2
2024-07-21 07:40 am 2.0 0.0 5.9 NE 2.0 3.2 ENE N/A 3.0
2024-07-21 07:10 am 2.0 0.0 5.9NNE 1.6 3.4 NE N/A 3.0
2024-07-21 06:40 am 1.6 0.0 12.1 SE 1.6 3.1 ENE N/A 3.0
2024-07-21 06:10 am 1.6 0.0 5.9 W 1.6 2.9 NE N/A 2.8
2024-07-21 05:40 am 1.3 0.0 5.9NNE 1.3 2.7 NE N/A 2.6
2024-07-21 05:10 am 1.0 0.0 7.1WSW 1.0 2.1 SW N/A 2.6
2024-07-21 04:40 am 0.7------ N/A 3.0
2024-07-21 04:10 am 1.0 0.0 5.9 NW 1.0 3.6 W N/A 3.0
2024-07-21 03:40 am 1.0 0.0 9.1WSW 1.0 3.4 W N/A 3.1
2024-07-21 03:10 am 1.0 0.3 7.1 NE 1.0 3.6 WNW N/A 3.1
2024-07-21 02:40 am 1.0 0.3 7.1ESE 1.0 3.7 W N/A 3.2
2024-07-21 02:10 am 1.0 0.3 9.1SSE 1.0 3.8 W N/A 3.3
2024-07-21 01:40 am 1.0 0.3 4.2 SW 1.0 3.6 WSW N/A 3.4
2024-07-21 01:10 am 1.0 0.3 4.3SSW 1.0 3.7 SW N/A 3.4

Plot of wave energy versus frequency (and period)